Location: Brunembert
(50.7122°N, 1.8935°E)
Time: 03:07:28
(UTC+00:00)

Meteor 1-4 Rocket - Pass Details

Date: 22 April 2021
Orbit: 448 x 499 km, 81.2° (Epoch: 06 May)

Event Time Altitude Azimuth Distance (km) Brightness Sun altitude
Exits shadow 20:50:32 35° 142° (SE) 768 3.0 -15.6°
Maximum altitude 20:51:31 45° 97° (E) 637 2.8 -15.7°
Drops below altitude 10° 20:54:56 10° 23° (NNE) 1,630 5.5 -16.1°
Sets 20:57:05 0° 18° (NNE) 2,521 6.6 -16.3°
